When you browse on this site, cookies collect data to enhance your experience and personalize the content and advertising you see.
Visit our Privacy Policy to learn more. By continuing to use the site, you agree to this use of cookies and data.
  • In Romania
  • List of Countries
  • For 7 days
  • Water Temperature
  • Satellite Maps
  • Weather Map
  • Weather Widgets
  • user-avatar
    Login

    Hourly Weather Polyanskoe

    Today, 25 March, Monday

    Time Temperature Precipitation Wind Pressure Humidity
    00:00 -4°C° 0.2 mm 5 mps 734 mmHg 95%
    01:00 -5°C° 0.2 mm 6 mps 733 mmHg 95%
    02:00 -5°C° 0.2 mm 6 mps 733 mmHg 95%
    03:00 -6°C° 0 mm 6 mps 732 mmHg 94%
    04:00 -8°C° 0 mm 6 mps 732 mmHg 94%
    05:00 -8°C° 0 mm 6 mps 732 mmHg 94%
    06:00 -8°C° 0 mm 6 mps 731 mmHg 94%
    07:00 -6°C° 0.1 mm 6 mps 732 mmHg 93%
    08:00 -5°C° 0.1 mm 6 mps 732 mmHg 93%
    09:00 -4°C° 0 mm 7 mps 732 mmHg 92%
    10:00 -3°C° 0.1 mm 7 mps 732 mmHg 94%
    11:00 -3°C° 0.1 mm 7 mps 732 mmHg 96%
    12:00 -2°C° 0.1 mm 7 mps 733 mmHg 97%
    13:00 -2°C° 0 mm 7 mps 733 mmHg 97%
    14:00 -2°C° 0 mm 7 mps 734 mmHg 96%
    15:00 -2°C° 0 mm 6 mps 734 mmHg 95%
    16:00 -3°C° 0 mm 6 mps 735 mmHg 93%
    17:00 -3°C° 0 mm 6 mps 735 mmHg 92%
    18:00 -3°C° 0 mm 6 mps 736 mmHg 91%
    19:00 -4°C° 0 mm 6 mps 736 mmHg 92%
    20:00 -5°C° 0 mm 5 mps 737 mmHg 93%
    21:00 -5°C° 0 mm 5 mps 737 mmHg 94%
    22:00 -5°C° 0 mm 4 mps 738 mmHg 93%
    23:00 -7°C° 0 mm 4 mps 738 mmHg 93%

    Tomorrow, 26 March, Tuesday

    Time Temperature Precipitation Wind Pressure Humidity
    00:00 -7°C° 0 mm 3 mps 739 mmHg 92%
    01:00 -7°C° 0 mm 3 mps 739 mmHg 91%
    02:00 -8°C° 0 mm 3 mps 739 mmHg 90%
    03:00 -7°C° 0 mm 2 mps 740 mmHg 88%
    04:00 -7°C° 0 mm 2 mps 740 mmHg 87%
    05:00 -6°C° 0 mm 2 mps 740 mmHg 86%
    06:00 -6°C° 0 mm 2 mps 740 mmHg 85%
    07:00 -5°C° 0 mm 3 mps 740 mmHg 85%
    08:00 -3°C° 0 mm 4 mps 740 mmHg 85%
    09:00 -2°C° 0 mm 4 mps 740 mmHg 85%
    10:00 -1°C° 0.1 mm 5 mps 739 mmHg 90%
    11:00 -1°C° 0.1 mm 5 mps 739 mmHg 95%
    12:00 -2°C° 0.1 mm 6 mps 738 mmHg 99%
    13:00 -2°C° 0.8 mm 6 mps 738 mmHg 99%
    14:00 -1°C° 0.8 mm 6 mps 737 mmHg 99%
    15:00 -1°C° 0.8 mm 7 mps 737 mmHg 99%
    16:00 -1°C° 0.3 mm 7 mps 737 mmHg 99%
    17:00 -1°C° 0.3 mm 7 mps 737 mmHg 99%
    18:00 -1°C° 0.3 mm 7 mps 737 mmHg 99%
    19:00 -1°C° 0 mm 6 mps 737 mmHg 98%
    20:00 -1°C° 0 mm 5 mps 738 mmHg 96%
    21:00 -1°C° 0 mm 4 mps 738 mmHg 95%
    22:00 0°C° 0 mm 3 mps 739 mmHg 94%
    23:00 0°C° 0 mm 3 mps 739 mmHg 94%

    Day after tomorrow, 27 March, Wednesday

    Time Temperature Precipitation Wind Pressure Humidity
    00:00 0°C° 0 mm 3 mps 739 mmHg 94%
    01:00 0°C° 0.2 mm 3 mps 739 mmHg 95%
    02:00 +1°C° 0.2 mm 2 mps 739 mmHg 97%
    03:00 +1°C° 0.2 mm 2 mps 739 mmHg 99%
    04:00 +1°C° 0.8 mm 2 mps 738 mmHg 99%
    05:00 0°C° 0.8 mm 3 mps 738 mmHg 99%
    06:00 0°C° 0.8 mm 3 mps 738 mmHg 99%
    07:00 0°C° 0.9 mm 3 mps 738 mmHg 99%
    08:00 -1°C° 0.9 mm 4 mps 738 mmHg 99%
    09:00 -1°C° 0.9 mm 5 mps 737 mmHg 99%
    10:00 -1°C° 1 mm 5 mps 738 mmHg 99%
    11:00 -1°C° 1 mm 5 mps 738 mmHg 99%
    12:00 -1°C° 1 mm 5 mps 738 mmHg 99%
    13:00 -1°C° 1.1 mm 4 mps 738 mmHg 99%
    14:00 0°C° 1.1 mm 3 mps 738 mmHg 99%
    15:00 0°C° 1.1 mm 3 mps 738 mmHg 99%
    16:00 0°C° 0.4 mm 3 mps 738 mmHg 99%
    17:00 +1°C° 0.4 mm 2 mps 738 mmHg 99%
    18:00 +1°C° 0.4 mm 2 mps 739 mmHg 99%
    19:00 0°C° 0.2 mm 3 mps 739 mmHg 98%
    20:00 -1°C° 0.2 mm 3 mps 739 mmHg 97%
    21:00 -1°C° 0.2 mm 3 mps 740 mmHg 96%
    22:00 -2°C° 0 mm 4 mps 740 mmHg 94%
    23:00 -3°C° 0 mm 4 mps 740 mmHg 93%

    28 March, Thursday

    Time Temperature Precipitation Wind Pressure Humidity
    00:00 -3°C° 0 mm 4 mps 740 mmHg 91%
    01:00 -5°C° 0 mm 4 mps 740 mmHg 91%
    02:00 -7°C° 0 mm 4 mps 740 mmHg 91%
    03:00 -8°C° 0 mm 3 mps 740 mmHg 91%
    04:00 -8°C° 0 mm 3 mps 740 mmHg 91%
    05:00 -8°C° 0 mm 3 mps 740 mmHg 91%
    06:00 -8°C° 0 mm 3 mps 740 mmHg 91%
    07:00 -8°C° 0 mm 4 mps 741 mmHg 90%
    08:00 -7°C° 0 mm 4 mps 741 mmHg 89%
    09:00 -5°C° 0 mm 4 mps 741 mmHg 87%
    10:00 -4°C° 0 mm 4 mps 742 mmHg 88%
    11:00 -4°C° 0 mm 5 mps 742 mmHg 88%
    12:00 -4°C° 0 mm 5 mps 742 mmHg 88%
    13:00 -4°C° 0 mm 5 mps 742 mmHg 88%
    14:00 -2°C° 0 mm 5 mps 742 mmHg 88%
    15:00 -2°C° 0 mm 5 mps 742 mmHg 89%
    16:00 -3°C° 0 mm 4 mps 742 mmHg 89%
    17:00 -4°C° 0 mm 4 mps 742 mmHg 89%
    18:00 -4°C° 0 mm 3 mps 743 mmHg 90%
    19:00 -5°C° 0 mm 3 mps 743 mmHg 90%
    20:00 -5°C° 0 mm 3 mps 743 mmHg 91%
    21:00 -5°C° 0 mm 3 mps 743 mmHg 92%
    22:00 -6°C° 0 mm 3 mps 743 mmHg 92%
    23:00 -7°C° 0 mm 4 mps 743 mmHg 92%

    29 March, Friday

    Time Temperature Precipitation Wind Pressure Humidity
    00:00 -8°C° 0 mm 4 mps 743 mmHg 92%
    01:00 -7°C° 0 mm 4 mps 743 mmHg 93%
    02:00 -7°C° 0 mm 4 mps 743 mmHg 94%
    03:00 -7°C° 0 mm 4 mps 743 mmHg 95%
    04:00 -7°C° 0 mm 4 mps 742 mmHg 95%
    05:00 -7°C° 0 mm 4 mps 742 mmHg 95%
    06:00 -7°C° 0 mm 4 mps 742 mmHg 95%
    07:00 -7°C° 0 mm 4 mps 742 mmHg 94%
    08:00 -6°C° 0 mm 5 mps 742 mmHg 93%
    09:00 -6°C° 0 mm 5 mps 742 mmHg 92%
    10:00 -5°C° 0 mm 6 mps 741 mmHg 91%
    11:00 -5°C° 0 mm 6 mps 740 mmHg 89%
    12:00 -4°C° 0 mm 6 mps 740 mmHg 87%
    13:00 -3°C° 0 mm 6 mps 739 mmHg 86%
    14:00 -3°C° 0 mm 6 mps 738 mmHg 85%
    15:00 -3°C° 0 mm 6 mps 738 mmHg 84%
    16:00 -3°C° 0.1 mm 6 mps 737 mmHg 84%
    17:00 -3°C° 0.1 mm 6 mps 736 mmHg 84%
    18:00 -3°C° 0.1 mm 7 mps 735 mmHg 85%
    19:00 -3°C° 0.3 mm 7 mps 734 mmHg 87%
    20:00 -3°C° 0.3 mm 7 mps 734 mmHg 89%
    21:00 -3°C° 0.3 mm 7 mps 733 mmHg 92%
    22:00 -3°C° 0.3 mm 6 mps 733 mmHg 93%
    23:00 -2°C° 0.3 mm 4 mps 732 mmHg 94%

    30 March, Saturday

    Time Temperature Precipitation Wind Pressure Humidity
    00:00 -1°C° 0.3 mm 3 mps 732 mmHg 95%
    01:00 -1°C° 0 mm 3 mps 732 mmHg 95%
    02:00 -2°C° 0 mm 4 mps 732 mmHg 95%
    03:00 -3°C° 0 mm 4 mps 733 mmHg 95%
    04:00 -3°C° 0 mm 4 mps 733 mmHg 95%
    05:00 -3°C° 0 mm 4 mps 734 mmHg 95%
    06:00 -3°C° 0 mm 4 mps 734 mmHg 95%
    07:00 -2°C° 0 mm 4 mps 735 mmHg 96%
    08:00 -2°C° 0 mm 4 mps 735 mmHg 97%
    09:00 -2°C° 0 mm 4 mps 736 mmHg 98%
    10:00 -2°C° 0 mm 4 mps 737 mmHg 99%
    11:00 -2°C° 0 mm 4 mps 737 mmHg 99%
    12:00 -1°C° 0 mm 4 mps 738 mmHg 99%
    13:00 0°C° 0 mm 3 mps 738 mmHg 99%
    14:00 0°C° 0 mm 3 mps 739 mmHg 99%
    15:00 0°C° 0 mm 3 mps 739 mmHg 99%
    16:00 0°C° 0 mm 3 mps 739 mmHg 99%
    17:00 -1°C° 0 mm 3 mps 740 mmHg 98%
    18:00 -1°C° 0 mm 3 mps 740 mmHg 97%
    19:00 -1°C° 0 mm 3 mps 741 mmHg 96%
    20:00 -2°C° 0 mm 2 mps 741 mmHg 96%
    21:00 -3°C° 0 mm 2 mps 741 mmHg 95%
    22:00 -3°C° 0 mm 2 mps 741 mmHg 94%
    23:00 -4°C° 0 mm 2 mps 741 mmHg 94%
    Show more